Location: Newark
(13.6797°N, 8.5297°E)
Time: 06:21:17
(UTC+00:00)

Courier 1B Rocket - Pass Details

Date: 26 January 2020
Orbit: 920 x 1202 km, 28.2° (Epoch: 17 February)

Event Time Altitude Azimuth Distance (km) Brightness Sun altitude
Rises 17:23:26 0° 289° (WNW) 3,603 8.9 -0.9°
Reaches altitude 10° 17:26:10 10° 285° (WNW) 2,634 8.3 -1.5°
Maximum altitude 17:32:15 52° 210° (SSW) 1,122 5.8 -2.9°
Drops below altitude 10° 17:38:17 10° 134° (SE) 2,608 7.0 -4.3°
Sets 17:40:58 0° 129° (SE) 3,565 7.6 -4.9°
